Time,TemperatureF,DewpointF,PressureIn,WindDirection,WindDirectionDegrees,WindSpeedMPH,WindSpeedGustMPH,Humidity,HourlyPrecipIn,Conditions,Clouds,dailyrainin,SoftwareType,DateUTC
2013-04-26 00:01:00,42.4,9.1,30.27,NW,304,0.0,0.0,25,0.00,,---,0.00,VWS V14.01,2013-04-26 04:01:00,
2013-04-26 00:06:00,42.4,9.1,30.27,NW,304,0.0,0.0,25,0.00,,---,0.00,VWS V14.01,2013-04-26 04:06:00,
2013-04-26 00:11:00,42.3,9.0,30.27,NW,304,0.0,0.0,25,0.00,,---,0.00,VWS V14.01,2013-04-26 04:11:00,
2013-04-26 00:16:00,42.1,8.8,30.27,NW,304,0.0,0.0,25,0.00,,---,0.00,VWS V14.01,2013-04-26 04:16:00,
2013-04-26 00:21:00,41.9,9.5,30.27,NW,304,0.0,0.0,26,0.00,,---,0.00,VWS V14.01,2013-04-26 04:21:00,
2013-04-26 00:26:00,41.5,10.9,30.27,NW,304,0.0,0.0,28,0.00,,---,0.00,VWS V14.01,2013-04-26 04:26:00,
2013-04-26 00:31:00,41.5,10.9,30.27,NW,304,0.0,0.0,28,0.00,,---,0.00,VWS V14.01,2013-04-26 04:31:00,
2013-04-26 00:36:00,41.4,10.7,30.27,NW,304,0.0,0.0,28,0.00,,---,0.00,VWS V14.01,2013-04-26 04:36:00,
2013-04-26 00:41:00,41.4,10.7,30.27,NW,304,0.0,2.7,28,0.00,,---,0.00,VWS V14.01,2013-04-26 04:41:00,
2013-04-26 00:46:00,41.2,11.4,30.27,NW,304,0.0,3.1,29,0.00,,---,0.00,VWS V14.01,2013-04-26 04:46:00,
2013-04-26 00:51:00,40.8,11.0,30.27,NW,304,0.0,3.1,29,0.00,,---,0.00,VWS V14.01,2013-04-26 04:51:00,
2013-04-26 00:56:00,40.6,10.9,30.27,NW,304,0.0,0.0,29,0.00,,---,0.00,VWS V14.01,2013-04-26 04:56:00,
2013-04-26 01:01:00,40.5,11.5,30.27,NW,304,0.0,0.0,30,0.00,,---,0.00,VWS V14.01,2013-04-26 05:01:00,
2013-04-26 01:06:00,40.3,11.3,30.27,NW,304,0.0,0.0,30,0.00,,---,0.00,VWS V14.01,2013-04-26 05:06:00,
2013-04-26 01:11:00,40.1,11.2,30.27,NW,304,0.0,0.0,30,0.00,,---,0.00,VWS V14.01,2013-04-26 05:11:00,
2013-04-26 01:16:00,40.1,12.6,30.27,NW,304,0.0,0.0,32,0.00,,---,0.00,VWS V14.01,2013-04-26 05:16:00,
2013-04-26 01:21:00,39.9,12.5,30.27,NW,304,0.0,0.0,32,0.00,,---,0.00,VWS V14.01,2013-04-26 05:21:00,
2013-04-26 01:26:00,39.7,12.3,30.27,NW,304,0.0,0.0,32,0.00,,---,0.00,VWS V14.01,2013-04-26 05:26:00,
2013-04-26 01:31:00,39.7,13.0,30.27,NW,304,0.0,0.0,33,0.00,,---,0.00,VWS V14.01,2013-04-26 05:31:00,
2013-04-26 01:36:00,39.6,12.9,30.27,NW,304,0.0,0.0,33,0.00,,---,0.00,VWS V14.01,2013-04-26 05:36:00,
2013-04-26 01:41:00,39.2,12.5,30.27,NW,304,0.0,0.0,33,0.00,,---,0.00,VWS V14.01,2013-04-26 05:41:00,
2013-04-26 01:46:00,39.2,13.9,30.27,NW,304,0.0,0.0,35,0.00,,---,0.00,VWS V14.01,2013-04-26 05:46:00,
2013-04-26 01:51:00,39.2,13.9,30.27,NW,304,0.0,0.0,35,0.00,,---,0.00,VWS V14.01,2013-04-26 05:51:00,
2013-04-26 01:56:00,39.2,13.9,30.27,NW,304,0.0,0.0,35,0.00,,---,0.00,VWS V14.01,2013-04-26 05:56:00,
2013-04-26 02:01:00,39.0,13.0,30.27,NW,304,0.0,0.0,34,0.00,,---,0.00,VWS V14.01,2013-04-26 06:01:00,
2013-04-26 02:06:00,39.0,13.7,30.27,NW,304,0.0,0.0,35,0.00,,---,0.00,VWS V14.01,2013-04-26 06:06:00,
2013-04-26 02:11:00,38.8,14.2,30.27,NW,304,0.0,0.0,36,0.00,,---,0.00,VWS V14.01,2013-04-26 06:11:00,
2013-04-26 02:16:00,38.5,13.9,30.27,NW,304,0.0,0.0,36,0.00,,---,0.00,VWS V14.01,2013-04-26 06:16:00,
2013-04-26 02:21:00,38.5,13.9,30.27,NW,304,0.0,0.0,36,0.00,,---,0.00,VWS V14.01,2013-04-26 06:21:00,
2013-04-26 02:26:00,38.5,14.5,30.27,NW,304,0.0,0.0,37,0.00,,---,0.00,VWS V14.01,2013-04-26 06:26:00,
2013-04-26 02:31:00,38.3,14.9,30.27,NW,304,0.0,0.0,38,0.00,,---,0.00,VWS V14.01,2013-04-26 06:31:00,
2013-04-26 02:36:00,38.1,15.4,30.27,NW,304,0.0,0.0,39,0.00,,---,0.00,VWS V14.01,2013-04-26 06:36:00,
2013-04-26 02:41:00,37.9,15.2,30.27,NW,304,0.0,0.0,39,0.00,,---,0.00,VWS V14.01,2013-04-26 06:41:00,
2013-04-26 02:46:00,38.1,15.4,30.27,NW,304,0.0,0.0,39,0.00,,---,0.00,VWS V14.01,2013-04-26 06:46:00,
2013-04-26 02:51:00,37.9,15.2,30.27,NW,304,0.0,0.0,39,0.00,,---,0.00,VWS V14.01,2013-04-26 06:51:00,
2013-04-26 02:56:00,37.9,15.2,30.27,NW,304,0.0,0.0,39,0.00,,---,0.00,VWS V14.01,2013-04-26 06:56:00,
2013-04-26 03:01:00,37.9,15.8,30.27,NW,304,0.0,0.0,40,0.00,,---,0.00,VWS V14.01,2013-04-26 07:01:00,
2013-04-26 03:06:00,37.8,15.6,30.27,NW,304,0.0,0.0,40,0.00,,---,0.00,VWS V14.01,2013-04-26 07:06:00,
2013-04-26 03:11:00,37.8,15.6,30.27,NW,304,0.0,0.0,40,0.00,,---,0.00,VWS V14.01,2013-04-26 07:11:00,
2013-04-26 03:16:00,37.6,15.5,30.27,NW,304,0.0,0.0,40,0.00,,---,0.00,VWS V14.01,2013-04-26 07:16:00,
2013-04-26 03:21:00,37.4,15.9,30.27,NW,304,0.0,0.0,41,0.00,,---,0.00,VWS V14.01,2013-04-26 07:21:00,
2013-04-26 03:26:00,37.0,15.5,30.27,NW,304,0.0,0.0,41,0.00,,---,0.00,VWS V14.01,2013-04-26 07:26:00,
2013-04-26 03:31:00,37.0,15.5,30.27,NW,304,0.0,0.0,41,0.00,,---,0.00,VWS V14.01,2013-04-26 07:31:00,
2013-04-26 03:36:00,37.0,15.5,30.27,NW,304,0.0,0.0,41,0.00,,---,0.00,VWS V14.01,2013-04-26 07:36:00,
2013-04-26 03:41:00,37.0,15.5,30.27,NW,304,0.0,0.0,41,0.00,,---,0.00,VWS V14.01,2013-04-26 07:41:00,
2013-04-26 03:46:00,37.0,16.1,30.27,NW,304,0.0,0.0,42,0.00,,---,0.00,VWS V14.01,2013-04-26 07:46:00,
2013-04-26 03:51:00,37.0,16.6,30.27,NW,304,0.0,0.0,43,0.00,,---,0.00,VWS V14.01,2013-04-26 07:51:00,
2013-04-26 03:56:00,36.9,16.5,30.27,NW,304,0.0,0.0,43,0.00,,---,0.00,VWS V14.01,2013-04-26 07:56:00,
2013-04-26 04:01:00,36.7,16.3,30.27,NW,304,0.0,0.0,43,0.00,,---,0.00,VWS V14.01,2013-04-26 08:01:00,
2013-04-26 04:06:00,36.7,16.8,30.30,NW,304,0.0,0.0,44,0.00,,---,0.00,VWS V14.01,2013-04-26 08:06:00,
2013-04-26 04:11:00,36.7,16.8,30.30,NW,304,0.0,0.0,44,0.00,,---,0.00,VWS V14.01,2013-04-26 08:11:00,
2013-04-26 04:16:00,36.7,16.8,30.30,NW,304,0.0,0.0,44,0.00,,---,0.00,VWS V14.01,2013-04-26 08:16:00,
2013-04-26 04:21:00,36.7,17.4,30.30,NW,304,0.0,0.0,45,0.00,,---,0.00,VWS V14.01,2013-04-26 08:21:00,
2013-04-26 04:26:00,36.7,17.9,30.30,NW,304,0.0,0.0,46,0.00,,---,0.00,VWS V14.01,2013-04-26 08:26:00,
2013-04-26 04:31:00,36.5,17.7,30.30,NW,304,0.0,3.1,46,0.00,,---,0.00,VWS V14.01,2013-04-26 08:31:00,
2013-04-26 04:36:00,36.3,17.5,30.30,NW,304,0.0,0.0,46,0.00,,---,0.00,VWS V14.01,2013-04-26 08:36:00,
2013-04-26 04:41:00,36.3,17.5,30.30,NW,304,0.0,0.0,46,0.00,,---,0.00,VWS V14.01,2013-04-26 08:41:00,
2013-04-26 04:46:00,36.1,17.4,30.30,NW,304,0.0,0.0,46,0.00,,---,0.00,VWS V14.01,2013-04-26 08:46:00,
2013-04-26 04:51:00,36.0,17.2,30.30,NW,304,0.0,0.0,46,0.00,,---,0.00,VWS V14.01,2013-04-26 08:51:00,
2013-04-26 04:56:00,35.8,17.0,30.30,NW,304,0.0,0.0,46,0.00,,---,0.00,VWS V14.01,2013-04-26 08:56:00,
2013-04-26 05:01:00,35.8,17.0,30.30,NW,304,0.0,0.0,46,0.00,,---,0.00,VWS V14.01,2013-04-26 09:01:00,
2013-04-26 05:06:00,35.6,17.4,30.30,NW,304,0.0,2.7,47,0.00,,---,0.00,VWS V14.01,2013-04-26 09:06:00,
2013-04-26 05:11:00,35.6,17.9,30.30,NW,304,2.7,2.7,48,0.00,,---,0.00,VWS V14.01,2013-04-26 09:11:00,
2013-04-26 05:16:00,35.4,17.7,30.30,NW,304,0.0,0.0,48,0.00,,---,0.00,VWS V14.01,2013-04-26 09:16:00,
2013-04-26 05:21:00,35.2,18.0,30.30,NW,304,0.0,3.1,49,0.00,,---,0.00,VWS V14.01,2013-04-26 09:21:00,
2013-04-26 05:26:00,35.1,17.8,30.30,NW,304,0.0,3.1,49,0.00,,---,0.00,VWS V14.01,2013-04-26 09:26:00,
2013-04-26 05:31:00,35.1,18.3,30.30,NW,304,0.0,4.5,50,0.00,,---,0.00,VWS V14.01,2013-04-26 09:31:00,
2013-04-26 05:36:00,34.9,18.1,30.33,NW,304,0.0,0.0,50,0.00,,---,0.00,VWS V14.01,2013-04-26 09:36:00,
2013-04-26 05:41:00,34.9,18.1,30.33,NW,304,0.0,0.0,50,0.00,,---,0.00,VWS V14.01,2013-04-26 09:41:00,
2013-04-26 05:46:00,34.7,18.0,30.33,NW,304,0.0,2.7,50,0.00,,---,0.00,VWS V14.01,2013-04-26 09:46:00,
2013-04-26 05:51:00,34.5,18.3,30.33,NW,304,0.0,0.0,51,0.00,,---,0.00,VWS V14.01,2013-04-26 09:51:00,
2013-04-26 05:56:00,34.5,18.3,30.33,NW,304,0.0,2.7,51,0.00,,---,0.00,VWS V14.01,2013-04-26 09:56:00,
2013-04-26 06:01:00,34.5,18.7,30.33,NW,304,0.0,0.0,52,0.00,,---,0.00,VWS V14.01,2013-04-26 10:01:00,
2013-04-26 06:06:00,34.5,18.7,30.33,NW,304,0.0,0.0,52,0.00,,---,0.00,VWS V14.01,2013-04-26 10:06:00,
2013-04-26 06:11:00,34.5,18.7,30.33,NW,304,0.0,0.0,52,0.00,,---,0.00,VWS V14.01,2013-04-26 10:11:00,
2013-04-26 06:16:00,34.5,19.2,30.33,NW,304,0.0,0.0,53,0.00,,---,0.00,VWS V14.01,2013-04-26 10:16:00,
2013-04-26 06:21:00,34.5,19.2,30.33,NW,304,0.0,0.0,53,0.00,,---,0.00,VWS V14.01,2013-04-26 10:21:00,
2013-04-26 06:26:00,34.5,19.2,30.33,NW,304,0.0,0.0,53,0.00,,---,0.00,VWS V14.01,2013-04-26 10:26:00,
2013-04-26 06:31:00,34.7,19.3,30.33,NW,304,0.0,0.0,53,0.00,,---,0.00,VWS V14.01,2013-04-26 10:31:00,
2013-04-26 06:36:00,34.9,19.5,30.33,NW,304,0.0,0.0,53,0.00,,---,0.00,VWS V14.01,2013-04-26 10:36:00,
2013-04-26 06:41:00,35.1,19.7,30.33,NW,304,0.0,0.0,53,0.00,,---,0.00,VWS V14.01,2013-04-26 10:41:00,
2013-04-26 06:46:00,35.2,19.8,30.33,NW,304,0.0,0.0,53,0.00,,---,0.00,VWS V14.01,2013-04-26 10:46:00,
2013-04-26 06:51:00,35.6,20.2,30.33,NW,304,0.0,0.0,53,0.00,,---,0.00,VWS V14.01,2013-04-26 10:51:00,
2013-04-26 06:56:00,36.0,21.0,30.33,NW,304,0.0,0.0,54,0.00,,---,0.00,VWS V14.01,2013-04-26 10:56:00,
2013-04-26 07:01:00,36.3,21.3,30.33,NW,304,0.0,0.0,54,0.00,,---,0.00,VWS V14.01,2013-04-26 11:01:00,
2013-04-26 07:06:00,36.9,21.8,30.36,NW,304,0.0,2.7,54,0.00,,---,0.00,VWS V14.01,2013-04-26 11:06:00,
2013-04-26 07:11:00,37.2,21.7,30.36,NW,304,0.0,0.0,53,0.00,,---,0.00,VWS V14.01,2013-04-26 11:11:00,
2013-04-26 07:16:00,37.9,22.4,30.36,NW,304,0.0,3.1,53,0.00,,---,0.00,VWS V14.01,2013-04-26 11:16:00,
2013-04-26 07:21:00,38.7,22.6,30.36,NW,304,0.0,0.0,52,0.00,,---,0.00,VWS V14.01,2013-04-26 11:21:00,
2013-04-26 07:26:00,39.0,22.0,30.36,NW,304,3.1,3.6,50,0.00,,---,0.00,VWS V14.01,2013-04-26 11:26:00,
2013-04-26 07:31:00,39.4,20.8,30.36,NW,304,0.0,3.6,47,0.00,,---,0.00,VWS V14.01,2013-04-26 11:31:00,
2013-04-26 07:36:00,40.3,20.6,30.36,NW,304,2.7,3.1,45,0.00,,---,0.00,VWS V14.01,2013-04-26 11:36:00,
2013-04-26 07:41:00,40.8,19.5,30.36,NW,304,2.7,3.6,42,0.00,,---,0.00,VWS V14.01,2013-04-26 11:41:00,
2013-04-26 07:46:00,41.4,18.9,30.36,NW,304,0.0,0.0,40,0.00,,---,0.00,VWS V14.01,2013-04-26 11:46:00,
2013-04-26 07:51:00,41.9,18.8,30.36,NW,304,3.1,3.1,39,0.00,,---,0.00,VWS V14.01,2013-04-26 11:51:00,
2013-04-26 07:56:00,43.0,19.7,30.36,NW,304,0.0,0.0,39,0.00,,---,0.00,VWS V14.01,2013-04-26 11:56:00,
2013-04-26 08:01:00,44.2,20.3,30.36,NW,304,0.0,3.1,38,0.00,,---,0.00,VWS V14.01,2013-04-26 12:01:00,
2013-04-26 08:06:00,45.1,21.1,30.36,NW,304,4.5,4.5,38,0.00,,---,0.00,VWS V14.01,2013-04-26 12:06:00,
2013-04-26 08:11:00,45.1,17.1,30.36,NW,304,0.0,4.5,32,0.00,,---,0.00,VWS V14.01,2013-04-26 12:11:00,
2013-04-26 08:16:00,45.3,16.5,30.36,NW,322,0.0,6.9,31,0.00,,---,0.00,VWS V14.01,2013-04-26 12:16:00,
2013-04-26 08:21:00,46.0,16.4,30.36,NW,322,2.7,4.5,30,0.00,,---,0.00,VWS V14.01,2013-04-26 12:21:00,
2013-04-26 08:26:00,46.4,15.9,30.36,NW,322,4.0,4.9,29,0.00,,---,0.00,VWS V14.01,2013-04-26 12:26:00,
2013-04-26 08:31:00,46.6,15.2,30.36,NNW,345,0.0,5.4,28,0.00,,---,0.00,VWS V14.01,2013-04-26 12:31:00,
2013-04-26 08:36:00,47.3,15.9,30.36,North,356,4.0,5.8,28,0.00,,---,0.00,VWS V14.01,2013-04-26 12:36:00,
2013-04-26 08:41:00,47.5,15.2,30.36,North,356,3.6,4.9,27,0.00,,---,0.00,VWS V14.01,2013-04-26 12:41:00,
2013-04-26 08:46:00,48.0,14.8,30.36,North,3,4.5,5.8,26,0.00,,---,0.00,VWS V14.01,2013-04-26 12:46:00,
2013-04-26 08:51:00,49.6,14.3,30.36,North,5,4.0,5.4,24,0.00,,---,0.00,VWS V14.01,2013-04-26 12:51:00,
2013-04-26 08:56:00,50.2,11.8,30.36,North,6,3.1,5.8,21,0.00,,---,0.00,VWS V14.01,2013-04-26 12:56:00,
2013-04-26 09:01:00,51.1,9.1,30.36,North,7,3.1,5.4,18,0.00,,---,0.00,VWS V14.01,2013-04-26 13:01:00,
2013-04-26 09:06:00,52.3,10.1,30.36,North,7,3.1,3.1,18,0.00,,---,0.00,VWS V14.01,2013-04-26 13:06:00,
2013-04-26 09:11:00,52.7,7.8,30.36,North,8,0.0,4.9,16,0.00,,---,0.00,VWS V14.01,2013-04-26 13:11:00,
2013-04-26 09:16:00,54.7,8.0,30.36,NNE,14,0.0,7.4,15,0.00,,---,0.00,VWS V14.01,2013-04-26 13:16:00,
2013-04-26 09:21:00,55.4,8.5,30.36,NNW,341,6.7,8.3,15,0.00,,---,0.00,VWS V14.01,2013-04-26 13:21:00,
2013-04-26 09:26:00,55.8,3.9,30.36,North,9,2.7,7.8,12,0.00,,---,0.00,VWS V14.01,2013-04-26 13:26:00,
2013-04-26 09:31:00,55.8,3.9,30.36,NNE,19,0.0,4.9,12,0.00,,---,0.00,VWS V14.01,2013-04-26 13:31:00,
2013-04-26 09:36:00,56.1,4.2,30.36,NNE,14,4.9,7.4,12,0.00,,---,0.00,VWS V14.01,2013-04-26 13:36:00,
2013-04-26 09:41:00,56.7,4.6,30.36,NNW,330,7.8,8.3,12,0.00,,---,0.00,VWS V14.01,2013-04-26 13:41:00,
2013-04-26 09:46:00,57.4,5.2,30.36,West,274,0.0,8.7,12,0.00,,---,0.00,VWS V14.01,2013-04-26 13:46:00,
2013-04-26 09:51:00,57.2,5.1,30.36,NW,310,6.9,9.2,12,0.00,,---,0.00,VWS V14.01,2013-04-26 13:51:00,
2013-04-26 09:56:00,56.5,4.5,30.36,NNE,25,5.4,8.3,12,0.00,,---,0.00,VWS V14.01,2013-04-26 13:56:00,
2013-04-26 10:01:00,56.5,4.5,30.36,North,356,6.7,7.4,12,0.00,,---,0.00,VWS V14.01,2013-04-26 14:01:00,
2013-04-26 10:06:00,57.6,5.3,30.36,North,351,4.5,6.3,12,0.00,,---,0.00,VWS V14.01,2013-04-26 14:06:00,
2013-04-26 10:11:00,57.4,5.2,30.36,NE,52,7.4,7.4,12,0.00,,---,0.00,VWS V14.01,2013-04-26 14:11:00,
2013-04-26 10:16:00,56.8,4.8,30.36,NNE,27,3.1,8.7,12,0.00,,---,0.00,VWS V14.01,2013-04-26 14:16:00,
2013-04-26 10:21:00,57.9,5.6,30.36,NW,317,6.3,7.4,12,0.00,,---,0.00,VWS V14.01,2013-04-26 14:21:00,
2013-04-26 10:26:00,58.6,6.2,30.36,North,356,4.9,7.4,12,0.00,,---,0.00,VWS V14.01,2013-04-26 14:26:00,
2013-04-26 10:31:00,58.1,5.8,30.36,North,10,4.0,8.3,12,0.00,,---,0.00,VWS V14.01,2013-04-26 14:31:00,
2013-04-26 10:36:00,57.9,5.6,30.36,NNE,21,4.0,5.4,12,0.00,,---,0.00,VWS V14.01,2013-04-26 14:36:00,
2013-04-26 10:41:00,59.0,6.5,30.36,WNW,294,4.9,12.1,12,0.00,,---,0.00,VWS V14.01,2013-04-26 14:41:00,
2013-04-26 10:46:00,60.1,5.4,30.36,NE,35,4.9,10.5,11,0.00,,---,0.00,VWS V14.01,2013-04-26 14:46:00,
2013-04-26 10:51:00,59.7,7.0,30.39,West,276,4.9,8.7,12,0.00,,---,0.00,VWS V14.01,2013-04-26 14:51:00,
2013-04-26 10:56:00,60.6,5.8,30.39,WSW,247,5.8,6.7,11,0.00,,---,0.00,VWS V14.01,2013-04-26 14:56:00,
2013-04-26 11:01:00,61.7,6.7,30.39,NW,313,4.9,9.2,11,0.00,,---,0.00,VWS V14.01,2013-04-26 15:01:00,
2013-04-26 11:06:00,62.8,7.5,30.39,NNW,342,5.8,7.8,11,0.00,,---,0.00,VWS V14.01,2013-04-26 15:06:00,
2013-04-26 11:11:00,64.2,6.5,30.39,NE,43,3.6,8.7,10,0.00,,---,0.00,VWS V14.01,2013-04-26 15:11:00,
2013-04-26 11:16:00,64.6,6.8,30.39,West,273,10.1,10.5,10,0.00,,---,0.00,VWS V14.01,2013-04-26 15:16:00,
2013-04-26 11:21:00,65.1,7.2,30.39,West,274,2.7,4.9,10,0.00,,---,0.00,VWS V14.01,2013-04-26 15:21:00,
2013-04-26 11:26:00,65.5,7.5,30.39,ENE,72,4.5,11.0,10,0.00,,---,0.00,VWS V14.01,2013-04-26 15:26:00,
2013-04-26 11:31:00,64.2,6.5,30.39,NNE,21,2.7,9.2,10,0.00,,---,0.00,VWS V14.01,2013-04-26 15:31:00,
2013-04-26 11:36:00,62.6,7.4,30.36,NNE,29,3.1,8.3,11,0.00,,---,0.00,VWS V14.01,2013-04-26 15:36:00,
2013-04-26 11:41:00,63.0,7.7,30.36,WSW,257,7.8,12.1,11,0.00,,---,0.00,VWS V14.01,2013-04-26 15:41:00,
2013-04-26 11:47:00,64.6,6.8,30.36,WNW,292,11.0,12.5,10,0.00,,---,0.00,VWS V14.01,2013-04-26 15:47:00,
2013-04-26 11:52:00,65.7,7.6,30.36,West,269,13.0,13.9,10,0.00,,---,0.00,VWS V14.01,2013-04-26 15:52:00,
2013-04-26 11:57:00,66.6,8.3,30.36,West,277,8.7,8.7,10,0.00,,---,0.00,VWS V14.01,2013-04-26 15:57:00,
2013-04-26 12:02:00,67.6,9.1,30.36,West,263,5.8,8.7,10,0.00,,---,0.00,VWS V14.01,2013-04-26 16:02:00,
2013-04-26 12:07:00,66.0,7.9,30.36,SW,223,4.9,8.3,10,0.00,,---,0.00,VWS V14.01,2013-04-26 16:07:00,
2013-04-26 12:12:00,64.9,7.1,30.36,NNE,31,4.0,7.4,10,0.00,,---,0.00,VWS V14.01,2013-04-26 16:12:00,
2013-04-26 12:17:00,64.9,7.1,30.36,West,280,6.3,6.7,10,0.00,,---,0.00,VWS V14.01,2013-04-26 16:17:00,
2013-04-26 12:22:00,65.7,7.6,30.36,WNW,285,6.3,10.5,10,0.00,,---,0.00,VWS V14.01,2013-04-26 16:22:00,
2013-04-26 12:27:00,66.9,8.6,30.36,NW,312,0.0,7.8,10,0.00,,---,0.00,VWS V14.01,2013-04-26 16:27:00,
2013-04-26 12:32:00,66.0,7.9,30.36,NE,37,0.0,9.2,10,0.00,,---,0.00,VWS V14.01,2013-04-26 16:32:00,
2013-04-26 12:37:00,66.4,8.2,30.36,North,9,2.7,5.8,10,0.00,,---,0.00,VWS V14.01,2013-04-26 16:37:00,
2013-04-26 12:42:00,65.3,7.4,30.36,ENE,66,0.0,6.3,10,0.00,,---,0.00,VWS V14.01,2013-04-26 16:42:00,
2013-04-26 12:47:00,66.2,8.1,30.36,WSW,256,6.3,10.5,10,0.00,,---,0.00,VWS V14.01,2013-04-26 16:47:00,
2013-04-26 12:52:00,66.9,8.6,30.36,West,259,4.9,6.9,10,0.00,,---,0.00,VWS V14.01,2013-04-26 16:52:00,
2013-04-26 12:57:00,67.3,8.9,30.36,WNW,288,6.9,6.9,10,0.00,,---,0.00,VWS V14.01,2013-04-26 16:57:00,
2013-04-26 13:02:00,68.5,9.8,30.36,West,276,4.9,7.4,10,0.00,,---,0.00,VWS V14.01,2013-04-26 17:02:00,
2013-04-26 13:07:00,68.9,10.1,30.36,NW,307,2.7,11.0,10,0.00,,---,0.00,VWS V14.01,2013-04-26 17:07:00,
2013-04-26 13:12:00,69.3,10.4,30.36,WNW,291,9.2,13.4,10,0.00,,---,0.00,VWS V14.01,2013-04-26 17:12:00,
2013-04-26 13:17:00,70.0,10.9,30.36,West,279,9.6,9.6,10,0.00,,---,0.00,VWS V14.01,2013-04-26 17:17:00,
2013-04-26 13:22:00,67.1,8.7,30.36,East,88,3.1,10.5,10,0.00,,---,0.00,VWS V14.01,2013-04-26 17:22:00,
2013-04-26 13:27:00,65.7,7.6,30.36,NW,316,4.0,12.1,10,0.00,,---,0.00,VWS V14.01,2013-04-26 17:27:00,
2013-04-26 13:32:00,67.5,9.0,30.36,West,259,3.6,7.4,10,0.00,,---,0.00,VWS V14.01,2013-04-26 17:32:00,
2013-04-26 13:37:00,68.4,9.7,30.36,West,271,0.0,6.9,10,0.00,,---,0.00,VWS V14.01,2013-04-26 17:37:00,
2013-04-26 13:42:00,68.9,10.1,30.36,WNW,289,6.3,11.2,10,0.00,,---,0.00,VWS V14.01,2013-04-26 17:42:00,
2013-04-26 13:47:00,67.8,9.3,30.36,ENE,70,0.0,8.3,10,0.00,,---,0.00,VWS V14.01,2013-04-26 17:47:00,
2013-04-26 13:52:00,67.1,8.7,30.33,NNE,30,4.0,8.3,10,0.00,,---,0.00,VWS V14.01,2013-04-26 17:52:00,
2013-04-26 13:57:00,67.5,9.0,30.33,NE,42,0.0,4.0,10,0.00,,---,0.00,VWS V14.01,2013-04-26 17:57:00,
2013-04-26 14:02:00,67.1,8.7,30.33,West,269,4.9,11.2,10,0.00,,---,0.00,VWS V14.01,2013-04-26 18:02:00,
2013-04-26 14:07:00,67.1,8.7,30.36,NW,314,5.8,8.3,10,0.00,,---,0.00,VWS V14.01,2013-04-26 18:07:00,
2013-04-26 14:12:00,68.4,9.7,30.36,WNW,286,4.5,9.6,10,0.00,,---,0.00,VWS V14.01,2013-04-26 18:12:00,
2013-04-26 14:17:00,68.9,10.1,30.36,NE,54,3.1,7.4,10,0.00,,---,0.00,VWS V14.01,2013-04-26 18:17:00,
2013-04-26 14:22:00,67.5,9.0,30.33,East,89,3.6,5.4,10,0.00,,---,0.00,VWS V14.01,2013-04-26 18:22:00,
2013-04-26 14:27:00,65.5,7.5,30.33,North,9,5.8,9.2,10,0.00,,---,0.00,VWS V14.01,2013-04-26 18:27:00,
2013-04-26 14:32:00,64.6,6.8,30.33,NW,317,5.8,7.8,10,0.00,,---,0.00,VWS V14.01,2013-04-26 18:32:00,
2013-04-26 14:37:00,64.6,6.8,30.33,NW,316,4.9,8.7,10,0.00,,---,0.00,VWS V14.01,2013-04-26 18:37:00,
2013-04-26 14:42:00,66.4,8.2,30.33,West,273,14.8,14.8,10,0.00,,---,0.00,VWS V14.01,2013-04-26 18:42:00,
2013-04-26 14:47:00,66.9,8.6,30.33,North,356,3.6,13.9,10,0.00,,---,0.00,VWS V14.01,2013-04-26 18:47:00,
2013-04-26 14:52:00,66.0,7.9,30.33,NE,50,9.6,9.6,10,0.00,,---,0.00,VWS V14.01,2013-04-26 18:52:00,
2013-04-26 14:57:00,65.1,7.2,30.33,South,173,2.7,7.8,10,0.00,,---,0.00,VWS V14.01,2013-04-26 18:57:00,
2013-04-26 15:02:00,66.4,8.2,30.33,West,259,0.0,9.6,10,0.00,,---,0.00,VWS V14.01,2013-04-26 19:02:00,
2013-04-26 15:07:00,67.3,8.9,30.33,NNE,16,8.3,9.6,10,0.00,,---,0.00,VWS V14.01,2013-04-26 19:07:00,
2013-04-26 15:12:00,66.0,7.9,30.33,North,4,2.7,9.6,10,0.00,,---,0.00,VWS V14.01,2013-04-26 19:12:00,
2013-04-26 15:17:00,67.3,8.9,30.33,WSW,242,4.0,10.5,10,0.00,,---,0.00,VWS V14.01,2013-04-26 19:17:00,
2013-04-26 15:22:00,67.6,9.1,30.33,WSW,239,4.5,4.5,10,0.00,,---,0.00,VWS V14.01,2013-04-26 19:22:00,
2013-04-26 15:27:00,67.6,9.1,30.33,NNW,342,5.4,11.0,10,0.00,,---,0.00,VWS V14.01,2013-04-26 19:27:00,
2013-04-26 15:32:00,68.0,9.4,30.33,NNW,334,4.5,5.8,10,0.00,,---,0.00,VWS V14.01,2013-04-26 19:32:00,
2013-04-26 15:37:00,68.4,9.7,30.33,WNW,294,8.7,12.5,10,0.00,,---,0.00,VWS V14.01,2013-04-26 19:37:00,
2013-04-26 15:42:00,68.4,9.7,30.33,NNE,29,3.1,8.7,10,0.00,,---,0.00,VWS V14.01,2013-04-26 19:42:00,
2013-04-26 15:47:00,67.8,9.3,30.33,NW,313,0.0,9.6,10,0.00,,---,0.00,VWS V14.01,2013-04-26 19:47:00,
2013-04-26 15:52:00,68.2,9.6,30.33,WNW,284,6.7,11.0,10,0.00,,---,0.00,VWS V14.01,2013-04-26 19:52:00,
2013-04-26 15:57:00,68.7,10.0,30.33,North,351,2.7,8.7,10,0.00,,---,0.00,VWS V14.01,2013-04-26 19:57:00,
2013-04-26 16:02:00,66.9,8.6,30.33,NE,54,6.9,10.1,10,0.00,,---,0.00,VWS V14.01,2013-04-26 20:02:00,
2013-04-26 16:07:00,66.2,8.1,30.33,ENE,66,4.0,6.9,10,0.00,,---,0.00,VWS V14.01,2013-04-26 20:07:00,
2013-04-26 16:12:00,66.7,8.5,30.33,NNE,21,0.0,6.9,10,0.00,,---,0.00,VWS V14.01,2013-04-26 20:12:00,
2013-04-26 16:17:00,66.7,8.5,30.33,NNE,32,4.5,8.3,10,0.00,,---,0.00,VWS V14.01,2013-04-26 20:17:00,
2013-04-26 16:22:00,66.9,8.6,30.33,North,356,4.0,12.1,10,0.00,,---,0.00,VWS V14.01,2013-04-26 20:22:00,
2013-04-26 16:27:00,66.9,8.6,30.33,East,80,4.9,7.8,10,0.00,,---,0.00,VWS V14.01,2013-04-26 20:27:00,
2013-04-26 16:32:00,66.4,8.2,30.33,West,259,7.8,10.1,10,0.00,,---,0.00,VWS V14.01,2013-04-26 20:32:00,
2013-04-26 16:37:00,67.3,8.9,30.33,NW,326,3.1,15.2,10,0.00,,---,0.00,VWS V14.01,2013-04-26 20:37:00,
2013-04-26 16:42:00,67.1,8.7,30.33,NNE,21,4.9,8.3,10,0.00,,---,0.00,VWS V14.01,2013-04-26 20:42:00,
2013-04-26 16:47:00,67.3,8.9,30.33,North,8,4.9,8.3,10,0.00,,---,0.00,VWS V14.01,2013-04-26 20:47:00,
2013-04-26 16:52:00,67.1,8.7,30.33,NNE,26,0.0,5.8,10,0.00,,---,0.00,VWS V14.01,2013-04-26 20:52:00,
2013-04-26 16:57:00,67.1,8.7,30.33,NE,46,6.3,7.4,10,0.00,,---,0.00,VWS V14.01,2013-04-26 20:57:00,
2013-04-26 17:02:00,65.8,7.8,30.33,NNE,12,3.1,7.8,10,0.00,,---,0.00,VWS V14.01,2013-04-26 21:02:00,
2013-04-26 17:07:00,66.6,8.3,30.33,NE,34,4.5,5.4,10,0.00,,---,0.00,VWS V14.01,2013-04-26 21:07:00,
2013-04-26 17:12:00,66.9,8.6,30.33,NE,44,8.3,9.2,10,0.00,,---,0.00,VWS V14.01,2013-04-26 21:12:00,
2013-04-26 17:17:00,66.4,8.2,30.33,WSW,255,2.7,8.7,10,0.00,,---,0.00,VWS V14.01,2013-04-26 21:17:00,
2013-04-26 17:22:00,66.9,8.6,30.33,NNW,337,4.9,11.0,10,0.00,,---,0.00,VWS V14.01,2013-04-26 21:22:00,
2013-04-26 17:27:00,66.9,8.6,30.33,NW,307,2.7,6.9,10,0.00,,---,0.00,VWS V14.01,2013-04-26 21:27:00,
2013-04-26 17:32:00,66.9,8.6,30.33,NNE,25,6.3,9.2,10,0.00,,---,0.00,VWS V14.01,2013-04-26 21:32:00,
2013-04-26 17:37:00,66.4,8.2,30.33,North,351,3.1,6.3,10,0.00,,---,0.00,VWS V14.01,2013-04-26 21:37:00,
2013-04-26 17:42:00,65.8,7.8,30.33,NNE,30,7.4,9.2,10,0.00,,---,0.00,VWS V14.01,2013-04-26 21:42:00,
2013-04-26 17:47:00,64.4,6.7,30.33,North,351,3.6,6.7,10,0.00,,---,0.00,VWS V14.01,2013-04-26 21:47:00,
2013-04-26 17:52:00,64.4,6.7,30.33,North,356,4.5,9.6,10,0.00,,---,0.00,VWS V14.01,2013-04-26 21:52:00,
2013-04-26 17:57:00,64.9,7.1,30.33,North,6,5.4,7.4,10,0.00,,---,0.00,VWS V14.01,2013-04-26 21:57:00,
2013-04-26 18:02:00,64.8,6.9,30.33,North,3,3.6,5.8,10,0.00,,---,0.00,VWS V14.01,2013-04-26 22:02:00,
2013-04-26 18:07:00,64.4,6.7,30.33,North,5,3.1,5.4,10,0.00,,---,0.00,VWS V14.01,2013-04-26 22:07:00,
2013-04-26 18:12:00,64.0,6.4,30.33,WNW,289,0.0,6.9,10,0.00,,---,0.00,VWS V14.01,2013-04-26 22:12:00,
2013-04-26 18:17:00,63.7,6.1,30.33,NNE,15,3.6,5.4,10,0.00,,---,0.00,VWS V14.01,2013-04-26 22:17:00,
2013-04-26 18:22:00,63.5,6.0,30.33,NNW,339,6.3,9.6,10,0.00,,---,0.00,VWS V14.01,2013-04-26 22:22:00,
2013-04-26 18:28:00,63.1,7.8,30.33,North,10,0.0,8.3,11,0.00,,---,0.00,VWS V14.01,2013-04-26 22:28:00,
2013-04-26 18:33:00,62.8,7.5,30.33,NW,325,4.0,5.8,11,0.00,,---,0.00,VWS V14.01,2013-04-26 22:33:00,
2013-04-26 18:38:00,63.0,7.7,30.33,North,2,0.0,6.9,11,0.00,,---,0.00,VWS V14.01,2013-04-26 22:38:00,
2013-04-26 18:43:00,62.8,7.5,30.33,North,5,4.5,4.9,11,0.00,,---,0.00,VWS V14.01,2013-04-26 22:43:00,
2013-04-26 18:48:00,62.8,7.5,30.33,WNW,296,0.0,6.7,11,0.00,,---,0.00,VWS V14.01,2013-04-26 22:48:00,
2013-04-26 18:53:00,62.1,7.0,30.36,NW,320,3.6,5.4,11,0.00,,---,0.00,VWS V14.01,2013-04-26 22:53:00,
2013-04-26 18:58:00,61.5,6.5,30.36,NE,42,7.8,7.8,11,0.00,,---,0.00,VWS V14.01,2013-04-26 22:58:00,
2013-04-26 19:03:00,61.2,6.3,30.36,North,356,4.5,8.3,11,0.00,,---,0.00,VWS V14.01,2013-04-26 23:03:00,
2013-04-26 19:08:00,60.4,5.7,30.33,NE,38,4.5,6.3,11,0.00,,---,0.00,VWS V14.01,2013-04-26 23:08:00,
2013-04-26 19:13:00,60.1,5.4,30.33,NNE,27,4.5,8.3,11,0.00,,---,0.00,VWS V14.01,2013-04-26 23:13:00,
2013-04-26 19:18:00,59.7,7.0,30.33,NNE,13,5.8,6.9,12,0.00,,---,0.00,VWS V14.01,2013-04-26 23:18:00,
2013-04-26 19:23:00,59.4,6.8,30.36,NNE,31,0.0,6.9,12,0.00,,---,0.00,VWS V14.01,2013-04-26 23:23:00,
2013-04-26 19:28:00,59.2,6.6,30.36,NE,37,2.7,5.4,12,0.00,,---,0.00,VWS V14.01,2013-04-26 23:28:00,
2013-04-26 19:33:00,58.8,6.3,30.36,NE,37,3.1,4.9,12,0.00,,---,0.00,VWS V14.01,2013-04-26 23:33:00,
2013-04-26 19:38:00,58.6,6.2,30.36,NE,37,3.1,4.5,12,0.00,,---,0.00,VWS V14.01,2013-04-26 23:38:00,
2013-04-26 19:43:00,58.3,5.9,30.36,NE,37,2.7,3.1,12,0.00,,---,0.00,VWS V14.01,2013-04-26 23:43:00,
2013-04-26 19:48:00,57.9,5.6,30.36,NE,37,0.0,4.5,12,0.00,,---,0.00,VWS V14.01,2013-04-26 23:48:00,
2013-04-26 19:53:00,57.7,5.5,30.36,NE,37,0.0,4.5,12,0.00,,---,0.00,VWS V14.01,2013-04-26 23:53:00,
2013-04-26 20:05:00,56.8,4.8,30.36,NE,38,0.0,0.0,12,0.00,,---,0.00,VWS V14.01,2013-04-27 00:05:00,
2013-04-26 20:10:00,56.3,4.4,30.36,NE,42,5.4,6.3,12,0.00,,---,0.00,VWS V14.01,2013-04-27 00:10:00,
2013-04-26 20:15:00,56.1,4.2,30.36,NE,42,4.5,4.5,12,0.00,,---,0.00,VWS V14.01,2013-04-27 00:15:00,
2013-04-26 20:20:00,55.9,4.1,30.36,NNE,27,2.7,3.6,12,0.00,,---,0.00,VWS V14.01,2013-04-27 00:20:00,
2013-04-26 20:25:00,55.8,3.9,30.36,NNE,25,0.0,4.5,12,0.00,,---,0.00,VWS V14.01,2013-04-27 00:25:00,
2013-04-26 20:30:00,55.8,3.9,30.36,NE,53,4.5,6.9,12,0.00,,---,0.00,VWS V14.01,2013-04-27 00:30:00,
2013-04-26 20:35:00,55.4,3.7,30.36,NE,53,4.5,4.5,12,0.00,,---,0.00,VWS V14.01,2013-04-27 00:35:00,
2013-04-26 20:40:00,55.2,3.5,30.36,NNE,16,4.9,6.9,12,0.00,,---,0.00,VWS V14.01,2013-04-27 00:40:00,
2013-04-26 20:45:00,55.0,3.4,30.36,NNE,25,4.0,5.8,12,0.00,,---,0.00,VWS V14.01,2013-04-27 00:45:00,
2013-04-26 20:50:00,54.7,3.1,30.36,NNE,27,3.6,5.8,12,0.00,,---,0.00,VWS V14.01,2013-04-27 00:50:00,
2013-04-26 20:55:00,54.5,2.9,30.36,NNE,29,4.0,5.4,12,0.00,,---,0.00,VWS V14.01,2013-04-27 00:55:00,
2013-04-26 21:00:00,54.3,4.5,30.36,NNE,29,0.0,5.8,13,0.00,,---,0.00,VWS V14.01,2013-04-27 01:00:00,
2013-04-26 21:05:00,54.0,4.2,30.39,NNE,28,0.0,4.0,13,0.00,,---,0.00,VWS V14.01,2013-04-27 01:05:00,
2013-04-26 21:10:00,53.8,4.1,30.39,NNE,29,2.7,4.5,13,0.00,,---,0.00,VWS V14.01,2013-04-27 01:10:00,
2013-04-26 21:15:00,53.4,3.8,30.39,NNE,29,0.0,4.9,13,0.00,,---,0.00,VWS V14.01,2013-04-27 01:15:00,
2013-04-26 21:20:00,53.2,3.7,30.39,NNE,29,0.0,3.1,13,0.00,,---,0.00,VWS V14.01,2013-04-27 01:20:00,
2013-04-26 21:25:00,52.9,3.4,30.39,NNE,29,3.6,4.9,13,0.00,,---,0.00,VWS V14.01,2013-04-27 01:25:00,
2013-04-26 21:30:00,52.7,3.2,30.39,NNE,21,6.3,6.3,13,0.00,,---,0.00,VWS V14.01,2013-04-27 01:30:00,
2013-04-26 21:35:00,52.7,3.2,30.39,NNE,28,0.0,4.5,13,0.00,,---,0.00,VWS V14.01,2013-04-27 01:35:00,
2013-04-26 21:40:00,52.5,3.1,30.39,NNE,28,3.6,4.9,13,0.00,,---,0.00,VWS V14.01,2013-04-27 01:40:00,
2013-04-26 21:45:00,52.3,3.0,30.39,NE,44,0.0,6.7,13,0.00,,---,0.00,VWS V14.01,2013-04-27 01:45:00,
2013-04-26 21:50:00,52.0,2.7,30.39,NE,44,2.7,4.5,13,0.00,,---,0.00,VWS V14.01,2013-04-27 01:50:00,
2013-04-26 21:55:00,51.6,2.4,30.39,NE,44,0.0,0.0,13,0.00,,---,0.00,VWS V14.01,2013-04-27 01:55:00,
2013-04-26 22:00:00,51.4,2.2,30.39,NE,44,0.0,0.0,13,0.00,,---,0.00,VWS V14.01,2013-04-27 02:00:00,
2013-04-26 22:05:00,51.3,2.1,30.39,NE,44,2.7,4.9,13,0.00,,---,0.00,VWS V14.01,2013-04-27 02:05:00,
2013-04-26 22:10:00,51.3,2.1,30.39,NE,38,2.7,3.1,13,0.00,,---,0.00,VWS V14.01,2013-04-27 02:10:00,
2013-04-26 22:15:00,50.9,3.4,30.39,ENE,59,6.7,6.7,14,0.00,,---,0.00,VWS V14.01,2013-04-27 02:15:00,
2013-04-26 22:20:00,50.7,3.3,30.39,ENE,60,4.0,4.0,14,0.00,,---,0.00,VWS V14.01,2013-04-27 02:20:00,
2013-04-26 22:25:00,50.5,3.1,30.39,ENE,59,0.0,4.0,14,0.00,,---,0.00,VWS V14.01,2013-04-27 02:25:00,
2013-04-26 22:30:00,50.4,3.0,30.39,North,351,0.0,6.3,14,0.00,,---,0.00,VWS V14.01,2013-04-27 02:30:00,
2013-04-26 22:35:00,50.2,2.8,30.39,North,356,3.1,4.9,14,0.00,,---,0.00,VWS V14.01,2013-04-27 02:35:00,
2013-04-26 22:40:00,50.2,2.8,30.39,North,356,4.0,5.4,14,0.00,,---,0.00,VWS V14.01,2013-04-27 02:40:00,
2013-04-26 22:45:00,50.2,2.8,30.39,North,356,0.0,3.6,14,0.00,,---,0.00,VWS V14.01,2013-04-27 02:45:00,
2013-04-26 22:50:00,50.2,2.8,30.39,NNE,12,2.7,4.5,14,0.00,,---,0.00,VWS V14.01,2013-04-27 02:50:00,
2013-04-26 22:55:00,50.0,2.7,30.39,NNE,12,3.6,4.9,14,0.00,,---,0.00,VWS V14.01,2013-04-27 02:55:00,
2013-04-26 23:00:00,50.0,2.7,30.39,NNE,23,0.0,6.7,14,0.00,,---,0.00,VWS V14.01,2013-04-27 03:00:00,
2013-04-26 23:05:00,49.8,2.5,30.39,NNE,14,2.7,6.7,14,0.00,,---,0.00,VWS V14.01,2013-04-27 03:05:00,
2013-04-26 23:10:00,49.6,2.4,30.39,NNE,14,3.6,4.0,14,0.00,,---,0.00,VWS V14.01,2013-04-27 03:10:00,
2013-04-26 23:15:00,49.5,2.3,30.39,NNE,14,0.0,4.0,14,0.00,,---,0.00,VWS V14.01,2013-04-27 03:15:00,
2013-04-26 23:20:00,49.3,2.1,30.39,NNE,14,3.6,3.6,14,0.00,,---,0.00,VWS V14.01,2013-04-27 03:20:00,
2013-04-26 23:25:00,49.1,2.0,30.39,NNE,14,4.0,4.9,14,0.00,,---,0.00,VWS V14.01,2013-04-27 03:25:00,
2013-04-26 23:31:00,49.1,2.0,30.39,NNE,15,4.0,4.9,14,0.00,,---,0.00,VWS V14.01,2013-04-27 03:31:00,
2013-04-26 23:35:00,49.1,2.0,30.42,NNE,16,0.0,5.4,14,0.00,,---,0.00,VWS V14.01,2013-04-27 03:35:00,
2013-04-26 23:40:00,49.1,2.0,30.42,NNE,16,0.0,4.0,14,0.00,,---,0.00,VWS V14.01,2013-04-27 03:40:00,
2013-04-26 23:45:00,48.9,1.8,30.42,NNE,16,0.0,3.6,14,0.00,,---,0.00,VWS V14.01,2013-04-27 03:45:00,
2013-04-26 23:50:00,48.7,1.7,30.42,NNE,16,0.0,3.1,14,0.00,,---,0.00,VWS V14.01,2013-04-27 03:50:00,
2013-04-26 23:55:00,48.6,1.5,30.42,NNE,16,0.0,0.0,14,0.00,,---,0.00,VWS V14.01,2013-04-27 03:55:00,